Flood From: 19-02-2018 10:30 Until: 20-02-2018 06:00 warning for: Flood Level: Yellow info button

Although rather usual in this region, locally or potentially dangerous phenomena are expected. (such as local winds, summer thunderstorms, rising streams or high waves) Be aware and pay attention to the latest weather updates, especially if you carry out activities exposed to weather or close to a stream or shoreline. 


Meteo18 Weather Cam more information Meteo18 Weather Cam


Thunder radar more information blitzortung!


Rain radar more information rain snow radar


Visit our other weather sites:

Template documentation
and downloads

And another site



Weather Underground History page Text

Daily Summary for June 5, 2017 Units:  Both    English   Metric
« Previous Day
Next Day »
Daily Weekly Monthly Yearly Custom
  High: Low: Average:
Temperature: TemperatureC °F /  -17.8 °C 10.8 °F /  -11.8 °C 16.8 °F /  -8.4 °C
Dew Point: DewpointC °F /  -17.8 °C 9.6 °F /  -12.4 °C 10.9 °F /  -11.7 °C
Humidity: Humidity % 46 % 70 %
Wind Speed: WindSpeedKMH mph /  0 km/h - 4.3 mph /  6.9 km/h
Wind Gust: WindSpeedGustKMH mph /  0 km/h - -
Wind:- - SW
Pressure: PressurehPa in /  0 hPa 1008.7 in /  34154.6 hPa -
Precipitation: 0.0 in /  0 mm    
Historical Graphs
 
 
Tabular Data for June 5, 2017
Time Temperature Dew Point Pressure Wind Wind Speed Wind Gust Humidity Rainfall Rate (Hourly)
TemperatureC °F /  -17.8 °C DewpointC °F /  -17.8 °C PressurehPa in /  0 hPa Calm     Humidity % HourlyPrecipMM in /  0 mm
00:02 12.1 °F /  -11.1 °C 10.3 °F /  -12.1 °C 1018.5 in /  34486.4 hPa Calm     89 % 0.0 in /  0 mm
00:07 12.2 °F /  -11 °C 10.3 °F /  -12.1 °C 1018.5 in /  34486.4 hPa Calm     88 % 0.0 in /  0 mm
00:12 12.1 °F /  -11.1 °C 10.2 °F /  -12.1 °C 1018.5 in /  34486.4 hPa Calm     88 % 0.0 in /  0 mm
00:17 12.1 °F /  -11.1 °C 10.2 °F /  -12.1 °C 1018.5 in /  34486.4 hPa Calm     88 % 0.0 in /  0 mm
00:22 11.8 °F /  -11.2 °C 10.0 °F /  -12.2 °C 1018.5 in /  34486.4 hPa Calm     89 % 0.0 in /  0 mm
00:32 11.6 °F /  -11.3 °C 10.0 °F /  -12.2 °C 1018.5 in /  34486.4 hPa Calm     90 % 0.0 in /  0 mm
00:42 11.6 °F /  -11.3 °C 10.2 °F /  -12.1 °C 1018.5 in /  34486.4 hPa Calm     91 % 0.0 in /  0 mm
00:47 11.6 °F /  -11.3 °C 10.2 °F /  -12.1 °C 1018.5 in /  34486.4 hPa Calm     91 % 0.0 in /  0 mm
00:52 11.4 °F /  -11.4 °C 10.0 °F /  -12.2 °C 1018.5 in /  34486.4 hPa Calm     91 % 0.0 in /  0 mm
00:57 11.3 °F /  -11.5 °C 9.9 °F /  -12.3 °C 1018.5 in /  34486.4 hPa Calm     91 % 0.0 in /  0 mm
01:02 11.3 °F /  -11.5 °C 9.9 °F /  -12.3 °C 1018.5 in /  34486.4 hPa Calm     91 % 0.0 in /  0 mm
01:07 11.2 °F /  -11.6 °C 9.8 °F /  -12.3 °C 1018.5 in /  34486.4 hPa Calm     91 % 0.0 in /  0 mm
01:12 11.2 °F /  -11.6 °C 9.9 °F /  -12.3 °C 1018.5 in /  34486.4 hPa Calm     92 % 0.0 in /  0 mm
01:17 11.3 °F /  -11.5 °C 10.0 °F /  -12.2 °C 1018.5 in /  34486.4 hPa Calm     92 % 0.0 in /  0 mm
01:22 11.4 °F /  -11.4 °C 10.1 °F /  -12.2 °C 1018.5 in /  34486.4 hPa Calm     92 % 0.0 in /  0 mm
01:27 11.4 °F /  -11.4 °C 10.0 °F /  -12.2 °C 1018.5 in /  34486.4 hPa Calm     91 % 0.0 in /  0 mm
01:32 11.4 °F /  -11.4 °C 10.1 °F /  -12.2 °C 1018.5 in /  34486.4 hPa Calm     92 % 0.0 in /  0 mm
01:37 11.4 °F /  -11.4 °C 10.1 °F /  -12.2 °C 1018.5 in /  34486.4 hPa Calm     92 % 0.0 in /  0 mm
01:42 11.4 °F /  -11.4 °C 10.1 °F /  -12.2 °C 1018.5 in /  34486.4 hPa Calm     92 % 0.0 in /  0 mm
01:47 11.5 °F /  -11.4 °C 10.1 °F /  -12.2 °C 1018.5 in /  34486.4 hPa Calm     91 % 0.0 in /  0 mm
01:52 11.6 °F /  -11.3 °C 10.2 °F /  -12.1 °C 1018.5 in /  34486.4 hPa Calm     91 % 0.0 in /  0 mm
02:02 11.6 °F /  -11.3 °C 10.2 °F /  -12.1 °C 1018.5 in /  34486.4 hPa Calm     91 % 0.0 in /  0 mm
02:12 11.7 °F /  -11.3 °C 10.3 °F /  -12.1 °C 1018.2 in /  34476.3 hPa Calm     91 % 0.0 in /  0 mm
02:17 11.7 °F /  -11.3 °C 10.3 °F /  -12.1 °C 1018.2 in /  34476.3 hPa Calm     91 % 0.0 in /  0 mm
02:22 11.8 °F /  -11.2 °C 10.4 °F /  -12 °C 1018.2 in /  34476.3 hPa Calm     91 % 0.0 in /  0 mm
02:32 11.6 °F /  -11.3 °C 10.2 °F /  -12.1 °C 1018.2 in /  34476.3 hPa Calm     91 % 0.0 in /  0 mm
02:37 11.6 °F /  -11.3 °C 10.2 °F /  -12.1 °C 1018.2 in /  34476.3 hPa Calm     91 % 0.0 in /  0 mm
02:42 11.7 °F /  -11.3 °C 10.3 °F /  -12.1 °C 1018.2 in /  34476.3 hPa Calm     91 % 0.0 in /  0 mm
02:47 11.7 °F /  -11.3 °C 10.3 °F /  -12.1 °C 1018.2 in /  34476.3 hPa Calm     91 % 0.0 in /  0 mm
02:52 11.7 °F /  -11.3 °C 10.3 °F /  -12.1 °C 1018.2 in /  34476.3 hPa Calm     91 % 0.0 in /  0 mm
02:57 11.7 °F /  -11.3 °C 10.3 °F /  -12.1 °C 1018.2 in /  34476.3 hPa Calm     91 % 0.0 in /  0 mm
03:02 11.6 °F /  -11.3 °C 10.2 °F /  -12.1 °C 1017.8 in /  34462.7 hPa Calm     91 % 0.0 in /  0 mm
03:07 11.6 °F /  -11.3 °C 10.2 °F /  -12.1 °C 1018.2 in /  34476.3 hPa Calm     91 % 0.0 in /  0 mm
03:12 11.6 °F /  -11.3 °C 10.2 °F /  -12.1 °C 1018.2 in /  34476.3 hPa Calm     91 % 0.0 in /  0 mm
03:17 11.5 °F /  -11.4 °C 10.1 °F /  -12.2 °C 1017.8 in /  34462.7 hPa Calm     91 % 0.0 in /  0 mm
03:22 11.4 °F /  -11.4 °C 10.1 °F /  -12.2 °C 1017.8 in /  34462.7 hPa Calm     92 % 0.0 in /  0 mm
03:32 11.3 °F /  -11.5 °C 10.0 °F /  -12.2 °C 1017.8 in /  34462.7 hPa Calm     92 % 0.0 in /  0 mm
03:42 11.2 °F /  -11.6 °C 9.9 °F /  -12.3 °C 1017.8 in /  34462.7 hPa Calm     92 % 0.0 in /  0 mm
03:47 11.1 °F /  -11.6 °C 9.8 °F /  -12.3 °C 1017.8 in /  34462.7 hPa Calm     92 % 0.0 in /  0 mm
03:52 11.0 °F /  -11.7 °C 9.8 °F /  -12.3 °C 1017.8 in /  34462.7 hPa Calm     92 % 0.0 in /  0 mm
03:57 11.0 °F /  -11.7 °C 9.8 °F /  -12.3 °C 1017.8 in /  34462.7 hPa Calm     92 % 0.0 in /  0 mm
04:02 10.9 °F /  -11.7 °C 9.7 °F /  -12.4 °C 1017.8 in /  34462.7 hPa Calm     92 % 0.0 in /  0 mm
04:07 10.9 °F /  -11.7 °C 9.8 °F /  -12.3 °C 1017.8 in /  34462.7 hPa Calm     93 % 0.0 in /  0 mm
04:12 10.8 °F /  -11.8 °C 9.7 °F /  -12.4 °C 1017.8 in /  34462.7 hPa Calm     93 % 0.0 in /  0 mm
04:17 10.9 °F /  -11.7 °C 9.8 °F /  -12.3 °C 1017.8 in /  34462.7 hPa Calm     93 % 0.0 in /  0 mm
04:22 10.9 °F /  -11.7 °C 9.8 °F /  -12.3 °C 1017.8 in /  34462.7 hPa Calm     93 % 0.0 in /  0 mm
04:27 10.9 °F /  -11.7 °C 9.7 °F /  -12.4 °C 1017.5 in /  34452.6 hPa Calm     92 % 0.0 in /  0 mm
04:32 10.9 °F /  -11.7 °C 9.7 °F /  -12.4 °C 1017.5 in /  34452.6 hPa Calm     92 % 0.0 in /  0 mm
04:37 10.8 °F /  -11.8 °C 9.6 °F /  -12.4 °C 1017.5 in /  34452.6 hPa Calm     92 % 0.0 in /  0 mm
04:42 10.8 °F /  -11.8 °C 9.7 °F /  -12.4 °C 1017.8 in /  34462.7 hPa Calm     93 % 0.0 in /  0 mm
04:47 10.8 °F /  -11.8 °C 9.7 °F /  -12.4 °C 1017.8 in /  34462.7 hPa Calm     93 % 0.0 in /  0 mm
04:52 10.8 °F /  -11.8 °C 9.7 °F /  -12.4 °C 1017.5 in /  34452.6 hPa Calm     93 % 0.0 in /  0 mm
04:57 10.8 °F /  -11.8 °C 9.7 °F /  -12.4 °C 1017.5 in /  34452.6 hPa Calm     93 % 0.0 in /  0 mm
05:02 10.8 °F /  -11.8 °C 9.7 °F /  -12.4 °C 1017.5 in /  34452.6 hPa Calm     93 % 0.0 in /  0 mm
05:12 10.8 °F /  -11.8 °C 9.7 °F /  -12.4 °C 1017.5 in /  34452.6 hPa Calm     93 % 0.0 in /  0 mm
05:17 10.8 °F /  -11.8 °C 9.7 °F /  -12.4 °C 1017.5 in /  34452.6 hPa Calm     93 % 0.0 in /  0 mm
05:22 10.8 °F /  -11.8 °C 9.7 °F /  -12.4 °C 1017.5 in /  34452.6 hPa Calm     93 % 0.0 in /  0 mm
05:32 10.9 °F /  -11.7 °C 9.8 °F /  -12.3 °C 1017.5 in /  34452.6 hPa Calm     93 % 0.0 in /  0 mm
05:42 10.9 °F /  -11.7 °C 9.8 °F /  -12.3 °C 1017.5 in /  34452.6 hPa Calm     93 % 0.0 in /  0 mm
05:52 11.1 °F /  -11.6 °C 9.8 °F /  -12.3 °C 1017.5 in /  34452.6 hPa Calm     92 % 0.0 in /  0 mm
05:57 11.0 °F /  -11.7 °C 9.8 °F /  -12.3 °C 1017.5 in /  34452.6 hPa Calm     92 % 0.0 in /  0 mm
06:02 11.0 °F /  -11.7 °C 9.8 °F /  -12.3 °C 1017.5 in /  34452.6 hPa Calm     92 % 0.0 in /  0 mm
06:12 10.9 °F /  -11.7 °C 9.7 °F /  -12.4 °C 1017.5 in /  34452.6 hPa Calm     92 % 0.0 in /  0 mm
06:17 10.9 °F /  -11.7 °C 9.8 °F /  -12.3 °C 1017.5 in /  34452.6 hPa Calm     93 % 0.0 in /  0 mm
06:22 10.8 °F /  -11.8 °C 9.7 °F /  -12.4 °C 1017.5 in /  34452.6 hPa Calm     93 % 0.0 in /  0 mm
06:32 10.8 °F /  -11.8 °C 9.7 °F /  -12.4 °C 1017.8 in /  34462.7 hPa Calm     93 % 0.0 in /  0 mm
06:42 10.8 °F /  -11.8 °C 9.7 °F /  -12.4 °C 1017.8 in /  34462.7 hPa Calm     93 % 0.0 in /  0 mm
06:47 10.9 °F /  -11.7 °C 10.0 °F /  -12.2 °C 1017.8 in /  34462.7 hPa Calm     94 % 0.0 in /  0 mm
06:52 10.9 °F /  -11.7 °C 10.0 °F /  -12.2 °C 1017.8 in /  34462.7 hPa Calm     94 % 0.0 in /  0 mm
07:02 11.0 °F /  -11.7 °C 10.1 °F /  -12.2 °C 1017.8 in /  34462.7 hPa Calm     94 % 0.0 in /  0 mm
07:07 11.1 °F /  -11.6 °C 10.2 °F /  -12.1 °C 1017.8 in /  34462.7 hPa Calm     94 % 0.0 in /  0 mm
07:12 11.1 °F /  -11.6 °C 10.2 °F /  -12.1 °C 1017.8 in /  34462.7 hPa Calm     94 % 0.0 in /  0 mm
07:17 11.1 °F /  -11.6 °C 10.2 °F /  -12.1 °C 1017.8 in /  34462.7 hPa Calm     94 % 0.0 in /  0 mm
07:22 11.3 °F /  -11.5 °C 10.4 °F /  -12 °C 1017.8 in /  34462.7 hPa Calm     94 % 0.0 in /  0 mm
07:32 11.7 °F /  -11.3 °C 10.8 °F /  -11.8 °C 1017.8 in /  34462.7 hPa Calm     94 % 0.0 in /  0 mm
07:42 12.4 °F /  -10.9 °C 11.5 °F /  -11.4 °C 1017.8 in /  34462.7 hPa Calm     94 % 0.0 in /  0 mm
07:47 12.7 °F /  -10.7 °C 11.6 °F /  -11.3 °C 1017.8 in /  34462.7 hPa Calm     93 % 0.0 in /  0 mm
07:52 12.8 °F /  -10.7 °C 11.5 °F /  -11.4 °C 1017.8 in /  34462.7 hPa Calm     92 % 0.0 in /  0 mm
07:57 12.9 °F /  -10.6 °C 11.5 °F /  -11.4 °C 1017.8 in /  34462.7 hPa Calm     91 % 0.0 in /  0 mm
08:02 13.1 °F /  -10.5 °C 11.7 °F /  -11.3 °C 1017.8 in /  34462.7 hPa Calm     91 % 0.0 in /  0 mm
08:12 13.9 °F /  -10.1 °C 11.9 °F /  -11.2 °C 1017.8 in /  34462.7 hPa Calm     88 % 0.0 in /  0 mm
08:17 14.1 °F /  -9.9 °C 11.6 °F /  -11.3 °C 1017.8 in /  34462.7 hPa Calm     85 % 0.0 in /  0 mm
08:22 14.4 °F /  -9.8 °C 11.5 °F /  -11.4 °C 1017.8 in /  34462.7 hPa Calm     83 % 0.0 in /  0 mm
08:32 16.3 °F /  -8.7 °C 12.8 °F /  -10.7 °C 1017.8 in /  34462.7 hPa Calm     80 % 0.0 in /  0 mm
08:37 16.7 °F /  -8.5 °C 12.2 °F /  -11 °C 1017.8 in /  34462.7 hPa Calm     75 % 0.0 in /  0 mm
08:42 16.7 °F /  -8.5 °C 12.4 °F /  -10.9 °C 1017.8 in /  34462.7 hPa Calm     76 % 0.0 in /  0 mm
08:47 16.6 °F /  -8.6 °C 12.4 °F /  -10.9 °C 1017.8 in /  34462.7 hPa Calm   1.6 mph /  2.6 km/h 76 % 0.0 in /  0 mm
08:52 16.6 °F /  -8.6 °C 12.1 °F /  -11.1 °C 1017.8 in /  34462.7 hPa Calm   1.6 mph /  2.6 km/h 75 % 0.0 in /  0 mm
09:02 16.3 °F /  -8.7 °C 11.7 °F /  -11.3 °C 1017.5 in /  34452.6 hPa SW 6.4 mph /  10.3 km/h 8.0 mph /  12.9 km/h 74 % 0.0 in /  0 mm
09:12 16.4 °F /  -8.7 °C 11.8 °F /  -11.2 °C 1017.5 in /  34452.6 hPa South 1.6 mph /  2.6 km/h 8.0 mph /  12.9 km/h 74 % 0.0 in /  0 mm
09:17 16.7 °F /  -8.5 °C 12.0 °F /  -11.1 °C 1017.5 in /  34452.6 hPa SSW 1.6 mph /  2.6 km/h 8.0 mph /  12.9 km/h 74 % 0.0 in /  0 mm
09:22 16.9 °F /  -8.4 °C 11.8 °F /  -11.2 °C 1017.5 in /  34452.6 hPa SSE 1.6 mph /  2.6 km/h 6.4 mph /  10.3 km/h 72 % 0.0 in /  0 mm
09:27 17.1 °F /  -8.3 °C 11.8 °F /  -11.2 °C 1017.5 in /  34452.6 hPa SW 4.8 mph /  7.7 km/h 6.4 mph /  10.3 km/h 71 % 0.0 in /  0 mm
09:32 17.3 °F /  -8.2 °C 11.6 °F /  -11.3 °C 1017.5 in /  34452.6 hPa SSW 9.7 mph /  15.6 km/h 9.7 mph /  15.6 km/h 69 % 0.0 in /  0 mm
09:37 17.2 °F /  -8.2 °C 11.5 °F /  -11.4 °C 1017.5 in /  34452.6 hPa South 1.6 mph /  2.6 km/h 11.3 mph /  18.2 km/h 69 % 0.0 in /  0 mm
09:42 17.5 °F /  -8.1 °C 11.7 °F /  -11.3 °C 1017.5 in /  34452.6 hPa WSW 6.4 mph /  10.3 km/h 11.3 mph /  18.2 km/h 69 % 0.0 in /  0 mm
09:47 17.7 °F /  -7.9 °C 11.9 °F /  -11.2 °C 1017.5 in /  34452.6 hPa SSW 4.8 mph /  7.7 km/h 11.3 mph /  18.2 km/h 69 % 0.0 in /  0 mm
09:52 17.9 °F /  -7.8 °C 11.7 °F /  -11.3 °C 1017.2 in /  34442.4 hPa SW 3.2 mph /  5.1 km/h 9.7 mph /  15.6 km/h 67 % 0.0 in /  0 mm
09:57 17.9 °F /  -7.8 °C 11.9 °F /  -11.2 °C 1017.2 in /  34442.4 hPa SSW 6.4 mph /  10.3 km/h 11.3 mph /  18.2 km/h 68 % 0.0 in /  0 mm
10:02 18.0 °F /  -7.8 °C 12.2 °F /  -11 °C 1017.2 in /  34442.4 hPa ENE 4.8 mph /  7.7 km/h 11.3 mph /  18.2 km/h 69 % 0.0 in /  0 mm
10:12 18.3 °F /  -7.6 °C 11.8 °F /  -11.2 °C 1017.2 in /  34442.4 hPa Calm   9.7 mph /  15.6 km/h 66 % 0.0 in /  0 mm
10:17 18.4 °F /  -7.6 °C 12.2 °F /  -11 °C 1017.2 in /  34442.4 hPa SSW 3.2 mph /  5.1 km/h 9.7 mph /  15.6 km/h 67 % 0.0 in /  0 mm
10:22 18.6 °F /  -7.4 °C 12.1 °F /  -11.1 °C 1017.2 in /  34442.4 hPa SW 3.2 mph /  5.1 km/h 9.7 mph /  15.6 km/h 66 % 0.0 in /  0 mm
10:27 18.7 °F /  -7.4 °C 12.2 °F /  -11 °C 1017.2 in /  34442.4 hPa Calm   8.0 mph /  12.9 km/h 66 % 0.0 in /  0 mm
10:32 18.8 °F /  -7.3 °C 11.1 °F /  -11.6 °C 1017.2 in /  34442.4 hPa SSW 12.9 mph /  20.8 km/h 12.9 mph /  20.8 km/h 61 % 0.0 in /  0 mm
10:37 18.7 °F /  -7.4 °C 11.0 °F /  -11.7 °C 1017.2 in /  34442.4 hPa SSW 3.2 mph /  5.1 km/h 14.5 mph /  23.3 km/h 61 % 0.0 in /  0 mm
10:42 18.8 °F /  -7.3 °C 11.1 °F /  -11.6 °C 1016.8 in /  34428.8 hPa SSW 4.8 mph /  7.7 km/h 14.5 mph /  23.3 km/h 61 % 0.0 in /  0 mm
10:47 19.2 °F /  -7.1 °C 11.7 °F /  -11.3 °C 1016.8 in /  34428.8 hPa SSW 9.7 mph /  15.6 km/h 14.5 mph /  23.3 km/h 62 % 0.0 in /  0 mm
10:52 19.1 °F /  -7.2 °C 11.2 °F /  -11.6 °C 1016.8 in /  34428.8 hPa WSW 3.2 mph /  5.1 km/h 12.9 mph /  20.8 km/h 60 % 0.0 in /  0 mm
10:57 19.4 °F /  -7 °C 11.7 °F /  -11.3 °C 1016.5 in /  34418.7 hPa SW 8.0 mph /  12.9 km/h 11.3 mph /  18.2 km/h 61 % 0.0 in /  0 mm
11:02 19.4 °F /  -7 °C 11.7 °F /  -11.3 °C 1016.5 in /  34418.7 hPa SSW 1.6 mph /  2.6 km/h 14.5 mph /  23.3 km/h 61 % 0.0 in /  0 mm
11:12 19.6 °F /  -6.9 °C 10.8 °F /  -11.8 °C 1016.5 in /  34418.7 hPa SW 9.7 mph /  15.6 km/h 14.5 mph /  23.3 km/h 57 % 0.0 in /  0 mm
11:17 19.6 °F /  -6.9 °C 10.6 °F /  -11.9 °C 1016.5 in /  34418.7 hPa SSW 9.7 mph /  15.6 km/h 16.1 mph /  25.9 km/h 56 % 0.0 in /  0 mm
11:22 19.7 °F /  -6.8 °C 10.4 °F /  -12 °C 1016.5 in /  34418.7 hPa SSW 11.3 mph /  18.2 km/h 16.1 mph /  25.9 km/h 55 % 0.0 in /  0 mm
11:27 19.7 °F /  -6.8 °C 10.1 °F /  -12.2 °C 1016.5 in /  34418.7 hPa SSW 8.0 mph /  12.9 km/h 16.1 mph /  25.9 km/h 54 % 0.0 in /  0 mm
11:32 19.9 °F /  -6.7 °C 11.1 °F /  -11.6 °C 1016.1 in /  34405.1 hPa South 4.8 mph /  7.7 km/h 14.5 mph /  23.3 km/h 57 % 0.0 in /  0 mm
11:37 20.3 °F /  -6.5 °C 11.8 °F /  -11.2 °C 1016.1 in /  34405.1 hPa South 4.8 mph /  7.7 km/h 14.5 mph /  23.3 km/h 58 % 0.0 in /  0 mm
11:42 20.2 °F /  -6.6 °C 10.9 °F /  -11.7 °C 1016.5 in /  34418.7 hPa SW 8.0 mph /  12.9 km/h 11.3 mph /  18.2 km/h 55 % 0.0 in /  0 mm
11:47 19.9 °F /  -6.7 °C 10.9 °F /  -11.7 °C 1016.5 in /  34418.7 hPa WSW 4.8 mph /  7.7 km/h 12.9 mph /  20.8 km/h 56 % 0.0 in /  0 mm
11:52 19.8 °F /  -6.8 °C 10.8 °F /  -11.8 °C 1016.5 in /  34418.7 hPa SW 6.4 mph /  10.3 km/h 14.5 mph /  23.3 km/h 56 % 0.0 in /  0 mm
11:57 20.0 °F /  -6.7 °C 11.5 °F /  -11.4 °C 1016.5 in /  34418.7 hPa South 4.8 mph /  7.7 km/h 14.5 mph /  23.3 km/h 58 % 0.0 in /  0 mm
12:02 20.3 °F /  -6.5 °C 11.5 °F /  -11.4 °C 1016.1 in /  34405.1 hPa WSW 11.3 mph /  18.2 km/h 19.3 mph /  31.1 km/h 57 % 0.0 in /  0 mm
12:07 20.3 °F /  -6.5 °C 10.7 °F /  -11.8 °C 1016.1 in /  34405.1 hPa SW 4.8 mph /  7.7 km/h 19.3 mph /  31.1 km/h 54 % 0.0 in /  0 mm
12:12 20.4 °F /  -6.4 °C 11.1 °F /  -11.6 °C 1016.1 in /  34405.1 hPa SSW 8.0 mph /  12.9 km/h 19.3 mph /  31.1 km/h 55 % 0.0 in /  0 mm
12:17 20.7 °F /  -6.3 °C 11.3 °F /  -11.5 °C 1016.1 in /  34405.1 hPa WSW 9.7 mph /  15.6 km/h 16.1 mph /  25.9 km/h 55 % 0.0 in /  0 mm
12:22 20.7 °F /  -6.3 °C 11.3 °F /  -11.5 °C 1016.1 in /  34405.1 hPa West 1.6 mph /  2.6 km/h 16.1 mph /  25.9 km/h 55 % 0.0 in /  0 mm
12:27 20.2 °F /  -6.6 °C 10.3 °F /  -12.1 °C 1016.1 in /  34405.1 hPa SW 8.0 mph /  12.9 km/h 12.9 mph /  20.8 km/h 53 % 0.0 in /  0 mm
12:32 20.2 °F /  -6.6 °C 10.0 °F /  -12.2 °C 1016.1 in /  34405.1 hPa NW 1.6 mph /  2.6 km/h 12.9 mph /  20.8 km/h 52 % 0.0 in /  0 mm
12:42 19.9 °F /  -6.7 °C 10.6 °F /  -11.9 °C 1016.1 in /  34405.1 hPa SSW 12.9 mph /  20.8 km/h 12.9 mph /  20.8 km/h 55 % 0.0 in /  0 mm
12:47 20.2 °F /  -6.6 °C 10.3 °F /  -12.1 °C 1016.1 in /  34405.1 hPa SW 9.7 mph /  15.6 km/h 12.9 mph /  20.8 km/h 53 % 0.0 in /  0 mm
12:52 20.3 °F /  -6.5 °C 10.7 °F /  -11.8 °C 1016.1 in /  34405.1 hPa SW 9.7 mph /  15.6 km/h 12.9 mph /  20.8 km/h 54 % 0.0 in /  0 mm
12:57 20.1 °F /  -6.6 °C 9.6 °F /  -12.4 °C 1016.1 in /  34405.1 hPa WSW 8.0 mph /  12.9 km/h 16.1 mph /  25.9 km/h 51 % 0.0 in /  0 mm
13:02 19.9 °F /  -6.7 °C 10.3 °F /  -12.1 °C 1015.8 in /  34395 hPa SW 8.0 mph /  12.9 km/h 16.1 mph /  25.9 km/h 54 % 0.0 in /  0 mm
13:07 19.9 °F /  -6.7 °C 11.1 °F /  -11.6 °C 1015.8 in /  34395 hPa WSW 4.8 mph /  7.7 km/h 14.5 mph /  23.3 km/h 57 % 0.0 in /  0 mm
13:12 19.8 °F /  -6.8 °C 11.6 °F /  -11.3 °C 1015.8 in /  34395 hPa SW 8.0 mph /  12.9 km/h 14.5 mph /  23.3 km/h 59 % 0.0 in /  0 mm
13:17 20.0 °F /  -6.7 °C 11.7 °F /  -11.3 °C 1015.8 in /  34395 hPa SW 4.8 mph /  7.7 km/h 12.9 mph /  20.8 km/h 59 % 0.0 in /  0 mm
13:22 20.3 °F /  -6.5 °C 11.5 °F /  -11.4 °C 1015.8 in /  34395 hPa South 8.0 mph /  12.9 km/h 12.9 mph /  20.8 km/h 57 % 0.0 in /  0 mm
13:27 20.7 °F /  -6.3 °C 10.5 °F /  -11.9 °C 1015.8 in /  34395 hPa WSW 9.7 mph /  15.6 km/h 12.9 mph /  20.8 km/h 52 % 0.0 in /  0 mm
13:32 20.9 °F /  -6.2 °C 11.0 °F /  -11.7 °C 1015.8 in /  34395 hPa SSW 12.9 mph /  20.8 km/h 12.9 mph /  20.8 km/h 53 % 0.0 in /  0 mm
13:37 20.8 °F /  -6.2 °C 10.9 °F /  -11.7 °C 1015.8 in /  34395 hPa SSW 11.3 mph /  18.2 km/h 17.7 mph /  28.5 km/h 53 % 0.0 in /  0 mm
13:42 20.6 °F /  -6.3 °C 10.4 °F /  -12 °C 1015.5 in /  34384.8 hPa SW 3.2 mph /  5.1 km/h 17.7 mph /  28.5 km/h 52 % 0.0 in /  0 mm
13:47 20.5 °F /  -6.4 °C 10.6 °F /  -11.9 °C 1015.5 in /  34384.8 hPa SSW 11.3 mph /  18.2 km/h 17.7 mph /  28.5 km/h 53 % 0.0 in /  0 mm
13:52 20.3 °F /  -6.5 °C 10.7 °F /  -11.8 °C 1015.5 in /  34384.8 hPa SSW 4.8 mph /  7.7 km/h 14.5 mph /  23.3 km/h 54 % 0.0 in /  0 mm
13:57 20.4 °F /  -6.4 °C 11.1 °F /  -11.6 °C 1015.5 in /  34384.8 hPa SSW 1.6 mph /  2.6 km/h 14.5 mph /  23.3 km/h 55 % 0.0 in /  0 mm
14:02 20.6 °F /  -6.3 °C 11.5 °F /  -11.4 °C 1015.1 in /  34371.3 hPa SW 1.6 mph /  2.6 km/h 14.5 mph /  23.3 km/h 56 % 0.0 in /  0 mm
14:07 20.5 °F /  -6.4 °C 10.6 °F /  -11.9 °C 1015.1 in /  34371.3 hPa NW 4.8 mph /  7.7 km/h 11.3 mph /  18.2 km/h 53 % 0.0 in /  0 mm
14:12 20.4 °F /  -6.4 °C 11.1 °F /  -11.6 °C 1015.1 in /  34371.3 hPa SW 11.3 mph /  18.2 km/h 11.3 mph /  18.2 km/h 55 % 0.0 in /  0 mm
14:17 20.2 °F /  -6.6 °C 11.4 °F /  -11.4 °C 1015.1 in /  34371.3 hPa West 4.8 mph /  7.7 km/h 16.1 mph /  25.9 km/h 57 % 0.0 in /  0 mm
14:22 20.6 °F /  -6.3 °C 11.8 °F /  -11.2 °C 1015.1 in /  34371.3 hPa WSW 12.9 mph /  20.8 km/h 16.1 mph /  25.9 km/h 57 % 0.0 in /  0 mm
14:27 20.7 °F /  -6.3 °C 10.8 °F /  -11.8 °C 1015.1 in /  34371.3 hPa WSW 6.4 mph /  10.3 km/h 19.3 mph /  31.1 km/h 53 % 0.0 in /  0 mm
14:32 20.8 °F /  -6.2 °C 10.9 °F /  -11.7 °C 1015.1 in /  34371.3 hPa WSW 4.8 mph /  7.7 km/h 19.3 mph /  31.1 km/h 53 % 0.0 in /  0 mm
14:37 20.9 °F /  -6.2 °C 11.2 °F /  -11.6 °C 1014.8 in /  34361.1 hPa WSW 14.5 mph /  23.3 km/h 19.3 mph /  31.1 km/h 54 % 0.0 in /  0 mm
14:42 21.1 °F /  -6.1 °C 11.4 °F /  -11.4 °C 1014.8 in /  34361.1 hPa SW 1.6 mph /  2.6 km/h 19.3 mph /  31.1 km/h 54 % 0.0 in /  0 mm
14:47 21.2 °F /  -6 °C 11.2 °F /  -11.6 °C 1014.8 in /  34361.1 hPa West 6.4 mph /  10.3 km/h 19.3 mph /  31.1 km/h 53 % 0.0 in /  0 mm
14:52 21.4 °F /  -5.9 °C 12.3 °F /  -10.9 °C 1014.4 in /  34347.6 hPa SW 8.0 mph /  12.9 km/h 19.3 mph /  31.1 km/h 56 % 0.0 in /  0 mm
14:57 21.5 °F /  -5.8 °C 10.9 °F /  -11.7 °C 1014.4 in /  34347.6 hPa West 4.8 mph /  7.7 km/h 19.3 mph /  31.1 km/h 51 % 0.0 in /  0 mm
15:02 21.6 °F /  -5.8 °C 11.6 °F /  -11.3 °C 1014.4 in /  34347.6 hPa SW 22.5 mph /  36.2 km/h 22.5 mph /  36.2 km/h 53 % 0.0 in /  0 mm
15:07 21.8 °F /  -5.7 °C 11.5 °F /  -11.4 °C 1014.4 in /  34347.6 hPa South 3.2 mph /  5.1 km/h 22.5 mph /  36.2 km/h 52 % 0.0 in /  0 mm
15:12 21.3 °F /  -5.9 °C 11.0 °F /  -11.7 °C 1014.4 in /  34347.6 hPa SW 6.4 mph /  10.3 km/h 22.5 mph /  36.2 km/h 52 % 0.0 in /  0 mm
15:17 21.2 °F /  -6 °C 11.5 °F /  -11.4 °C 1014.4 in /  34347.6 hPa West 3.2 mph /  5.1 km/h 22.5 mph /  36.2 km/h 54 % 0.0 in /  0 mm
15:22 21.2 °F /  -6 °C 11.0 °F /  -11.7 °C 1014.4 in /  34347.6 hPa WSW 6.4 mph /  10.3 km/h 20.9 mph /  33.6 km/h 52 % 0.0 in /  0 mm
15:27 21.3 °F /  -5.9 °C 11.0 °F /  -11.7 °C 1014.4 in /  34347.6 hPa SW 20.9 mph /  33.6 km/h 20.9 mph /  33.6 km/h 52 % 0.0 in /  0 mm
15:32 21.2 °F /  -6 °C 10.7 °F /  -11.8 °C 1014.4 in /  34347.6 hPa West 11.3 mph /  18.2 km/h 24.1 mph /  38.8 km/h 51 % 0.0 in /  0 mm
15:42 21.8 °F /  -5.7 °C 10.0 °F /  -12.2 °C 1014.1 in /  34337.4 hPa WSW 16.1 mph /  25.9 km/h 24.1 mph /  38.8 km/h 47 % 0.0 in /  0 mm
15:47 22.1 °F /  -5.5 °C 9.9 °F /  -12.3 °C 1014.1 in /  34337.4 hPa West 8.0 mph /  12.9 km/h 20.9 mph /  33.6 km/h 46 % 0.0 in /  0 mm
15:52 22.1 °F /  -5.5 °C 10.3 °F /  -12.1 °C 1014.1 in /  34337.4 hPa SW 16.1 mph /  25.9 km/h 22.5 mph /  36.2 km/h 47 % 0.0 in /  0 mm
15:57 22.1 °F /  -5.5 °C 10.9 °F /  -11.7 °C 1014.1 in /  34337.4 hPa West 12.9 mph /  20.8 km/h 22.5 mph /  36.2 km/h 49 % 0.0 in /  0 mm
16:02 21.9 °F /  -5.6 °C 10.4 °F /  -12 °C 1014.1 in /  34337.4 hPa WSW 9.7 mph /  15.6 km/h 24.1 mph /  38.8 km/h 48 % 0.0 in /  0 mm
16:07 21.6 °F /  -5.8 °C 11.0 °F /  -11.7 °C 1014.1 in /  34337.4 hPa SW 11.3 mph /  18.2 km/h 24.1 mph /  38.8 km/h 51 % 0.0 in /  0 mm
16:12 21.5 °F /  -5.8 °C 11.2 °F /  -11.6 °C 1013.8 in /  34327.3 hPa South 8.0 mph /  12.9 km/h 24.1 mph /  38.8 km/h 52 % 0.0 in /  0 mm
16:17 21.6 °F /  -5.8 °C 10.7 °F /  -11.8 °C 1013.8 in /  34327.3 hPa SW 8.0 mph /  12.9 km/h 19.3 mph /  31.1 km/h 50 % 0.0 in /  0 mm
16:22 21.9 °F /  -5.6 °C 11.0 °F /  -11.7 °C 1013.8 in /  34327.3 hPa SW 6.4 mph /  10.3 km/h 19.3 mph /  31.1 km/h 50 % 0.0 in /  0 mm
16:27 22.0 °F /  -5.6 °C 11.1 °F /  -11.6 °C 1013.8 in /  34327.3 hPa WSW 8.0 mph /  12.9 km/h 17.7 mph /  28.5 km/h 50 % 0.0 in /  0 mm
16:32 21.8 °F /  -5.7 °C 10.9 °F /  -11.7 °C 1013.4 in /  34313.7 hPa West 6.4 mph /  10.3 km/h 17.7 mph /  28.5 km/h 50 % 0.0 in /  0 mm
16:37 21.6 °F /  -5.8 °C 10.4 °F /  -12 °C 1013.4 in /  34313.7 hPa SW 11.3 mph /  18.2 km/h 20.9 mph /  33.6 km/h 49 % 0.0 in /  0 mm
16:42 21.5 °F /  -5.8 °C 11.2 °F /  -11.6 °C 1013.4 in /  34313.7 hPa WSW 1.6 mph /  2.6 km/h 20.9 mph /  33.6 km/h 52 % 0.0 in /  0 mm
16:47 21.7 °F /  -5.7 °C 10.5 °F /  -11.9 °C 1013.4 in /  34313.7 hPa WSW 4.8 mph /  7.7 km/h 20.9 mph /  33.6 km/h 49 % 0.0 in /  0 mm
16:52 21.9 °F /  -5.6 °C 11.3 °F /  -11.5 °C 1013.1 in /  34303.6 hPa SSW 3.2 mph /  5.1 km/h 14.5 mph /  23.3 km/h 51 % 0.0 in /  0 mm
16:57 22.1 °F /  -5.5 °C 10.6 °F /  -11.9 °C 1013.1 in /  34303.6 hPa SW 11.3 mph /  18.2 km/h 20.9 mph /  33.6 km/h 48 % 0.0 in /  0 mm
17:02 22.1 °F /  -5.5 °C 10.3 °F /  -12.1 °C 1013.1 in /  34303.6 hPa SSW 6.4 mph /  10.3 km/h 20.9 mph /  33.6 km/h 47 % 0.0 in /  0 mm
17:12 22.3 °F /  -5.4 °C 11.1 °F /  -11.6 °C 1013.1 in /  34303.6 hPa SW 11.3 mph /  18.2 km/h 22.5 mph /  36.2 km/h 49 % 0.0 in /  0 mm
17:17 22.2 °F /  -5.4 °C 10.4 °F /  -12 °C 1012.8 in /  34293.4 hPa WSW 9.7 mph /  15.6 km/h 22.5 mph /  36.2 km/h 47 % 0.0 in /  0 mm
17:22 22.3 °F /  -5.4 °C 10.4 °F /  -12 °C 1012.8 in /  34293.4 hPa SW 16.1 mph /  25.9 km/h 22.5 mph /  36.2 km/h 47 % 0.0 in /  0 mm
17:27 22.1 °F /  -5.5 °C 10.3 °F /  -12.1 °C 1012.8 in /  34293.4 hPa SW 8.0 mph /  12.9 km/h 20.9 mph /  33.6 km/h 47 % 0.0 in /  0 mm
17:32 22.0 °F /  -5.6 °C 10.5 °F /  -11.9 °C 1012.8 in /  34293.4 hPa SSW 9.7 mph /  15.6 km/h 22.5 mph /  36.2 km/h 48 % 0.0 in /  0 mm
17:37 22.0 °F /  -5.6 °C 9.8 °F /  -12.3 °C 1012.8 in /  34293.4 hPa WSW 11.3 mph /  18.2 km/h 22.5 mph /  36.2 km/h 46 % 0.0 in /  0 mm
17:42 22.1 °F /  -5.5 °C 10.3 °F /  -12.1 °C 1012.8 in /  34293.4 hPa WSW 11.3 mph /  18.2 km/h 19.3 mph /  31.1 km/h 47 % 0.0 in /  0 mm
17:47 22.2 °F /  -5.4 °C 10.4 °F /  -12 °C 1012.8 in /  34293.4 hPa West 16.1 mph /  25.9 km/h 20.9 mph /  33.6 km/h 47 % 0.0 in /  0 mm
17:52 22.1 °F /  -5.5 °C 10.9 °F /  -11.7 °C 1012.8 in /  34293.4 hPa SW 4.8 mph /  7.7 km/h 20.9 mph /  33.6 km/h 49 % 0.0 in /  0 mm
17:57 21.9 °F /  -5.6 °C 10.4 °F /  -12 °C 1012.4 in /  34279.9 hPa West 9.7 mph /  15.6 km/h 20.9 mph /  33.6 km/h 48 % 0.0 in /  0 mm
18:02 21.9 °F /  -5.6 °C 10.7 °F /  -11.8 °C 1012.4 in /  34279.9 hPa SW 3.2 mph /  5.1 km/h 19.3 mph /  31.1 km/h 49 % 0.0 in /  0 mm
18:07 21.6 °F /  -5.8 °C 10.1 °F /  -12.2 °C 1012.4 in /  34279.9 hPa SW 4.8 mph /  7.7 km/h 16.1 mph /  25.9 km/h 48 % 0.0 in /  0 mm
18:12 21.7 °F /  -5.7 °C 10.5 °F /  -11.9 °C 1012.1 in /  34269.7 hPa SW 6.4 mph /  10.3 km/h 16.1 mph /  25.9 km/h 49 % 0.0 in /  0 mm
18:17 21.7 °F /  -5.7 °C 10.8 °F /  -11.8 °C 1012.1 in /  34269.7 hPa SW 12.9 mph /  20.8 km/h 16.1 mph /  25.9 km/h 50 % 0.0 in /  0 mm
18:22 21.6 °F /  -5.8 °C 10.7 °F /  -11.8 °C 1012.1 in /  34269.7 hPa SW 11.3 mph /  18.2 km/h 22.5 mph /  36.2 km/h 50 % 0.0 in /  0 mm
18:32 21.4 °F /  -5.9 °C 11.1 °F /  -11.6 °C 1012.1 in /  34269.7 hPa SW 8.0 mph /  12.9 km/h 22.5 mph /  36.2 km/h 52 % 0.0 in /  0 mm
18:42 21.7 °F /  -5.7 °C 11.4 °F /  -11.4 °C 1011.7 in /  34256.2 hPa SSE 12.9 mph /  20.8 km/h 19.3 mph /  31.1 km/h 52 % 0.0 in /  0 mm
18:47 21.6 °F /  -5.8 °C 10.7 °F /  -11.8 °C 1011.7 in /  34256.2 hPa SW 17.7 mph /  28.5 km/h 19.3 mph /  31.1 km/h 50 % 0.0 in /  0 mm
18:52 21.2 °F /  -6 °C 10.7 °F /  -11.8 °C 1011.7 in /  34256.2 hPa WSW 11.3 mph /  18.2 km/h 22.5 mph /  36.2 km/h 51 % 0.0 in /  0 mm
18:57 21.0 °F /  -6.1 °C 10.5 °F /  -11.9 °C 1011.4 in /  34246 hPa WSW 9.7 mph /  15.6 km/h 22.5 mph /  36.2 km/h 51 % 0.0 in /  0 mm
19:02 20.9 °F /  -6.2 °C 11.2 °F /  -11.6 °C 1011.7 in /  34256.2 hPa SSE 4.8 mph /  7.7 km/h 22.5 mph /  36.2 km/h 54 % 0.0 in /  0 mm
19:07 21.2 °F /  -6 °C 12.1 °F /  -11.1 °C 1011.4 in /  34246 hPa SW 9.7 mph /  15.6 km/h 17.7 mph /  28.5 km/h 56 % 0.0 in /  0 mm
19:12 21.0 °F /  -6.1 °C 11.3 °F /  -11.5 °C 1011.4 in /  34246 hPa West 9.7 mph /  15.6 km/h 17.7 mph /  28.5 km/h 54 % 0.0 in /  0 mm
19:17 20.9 °F /  -6.2 °C 11.0 °F /  -11.7 °C 1011.4 in /  34246 hPa WSW 8.0 mph /  12.9 km/h 20.9 mph /  33.6 km/h 53 % 0.0 in /  0 mm
19:22 20.8 °F /  -6.2 °C 11.2 °F /  -11.6 °C 1011.4 in /  34246 hPa SSW 4.8 mph /  7.7 km/h 20.9 mph /  33.6 km/h 54 % 0.0 in /  0 mm
19:27 20.7 °F /  -6.3 °C 11.3 °F /  -11.5 °C 1011.4 in /  34246 hPa SW 3.2 mph /  5.1 km/h 17.7 mph /  28.5 km/h 55 % 0.0 in /  0 mm
19:32 20.6 °F /  -6.3 °C 12.0 °F /  -11.1 °C 1011.1 in /  34235.8 hPa SW 4.8 mph /  7.7 km/h 12.9 mph /  20.8 km/h 58 % 0.0 in /  0 mm
19:37 20.4 °F /  -6.4 °C 12.1 °F /  -11.1 °C 1011.1 in /  34235.8 hPa SSW 8.0 mph /  12.9 km/h 12.9 mph /  20.8 km/h 59 % 0.0 in /  0 mm
19:42 20.4 °F /  -6.4 °C 12.4 °F /  -10.9 °C 1011.1 in /  34235.8 hPa SW 6.4 mph /  10.3 km/h 12.9 mph /  20.8 km/h 60 % 0.0 in /  0 mm
19:47 20.3 °F /  -6.5 °C 12.3 °F /  -10.9 °C 1011.1 in /  34235.8 hPa SW 6.4 mph /  10.3 km/h 12.9 mph /  20.8 km/h 60 % 0.0 in /  0 mm
19:52 20.2 °F /  -6.6 °C 12.4 °F /  -10.9 °C 1011.1 in /  34235.8 hPa WSW 8.0 mph /  12.9 km/h 12.9 mph /  20.8 km/h 61 % 0.0 in /  0 mm
19:57 20.1 °F /  -6.6 °C 12.3 °F /  -10.9 °C 1011.1 in /  34235.8 hPa SW 4.8 mph /  7.7 km/h 12.9 mph /  20.8 km/h 61 % 0.0 in /  0 mm
20:02 19.9 °F /  -6.7 °C 12.9 °F /  -10.6 °C 1011.1 in /  34235.8 hPa SW 4.8 mph /  7.7 km/h 11.3 mph /  18.2 km/h 64 % 0.0 in /  0 mm
20:07 19.8 °F /  -6.8 °C 12.6 °F /  -10.8 °C 1010.7 in /  34222.3 hPa SSW 3.2 mph /  5.1 km/h 11.3 mph /  18.2 km/h 63 % 0.0 in /  0 mm
20:12 19.8 °F /  -6.8 °C 12.6 °F /  -10.8 °C 1010.7 in /  34222.3 hPa SW 3.2 mph /  5.1 km/h 11.3 mph /  18.2 km/h 63 % 0.0 in /  0 mm
20:17 20.1 °F /  -6.6 °C 12.6 °F /  -10.8 °C 1010.7 in /  34222.3 hPa SSW 9.7 mph /  15.6 km/h 11.3 mph /  18.2 km/h 62 % 0.0 in /  0 mm
20:22 20.2 °F /  -6.6 °C 12.4 °F /  -10.9 °C 1010.7 in /  34222.3 hPa SW 6.4 mph /  10.3 km/h 11.3 mph /  18.2 km/h 61 % 0.0 in /  0 mm
20:27 20.1 °F /  -6.6 °C 12.8 °F /  -10.7 °C 1010.7 in /  34222.3 hPa SW 9.7 mph /  15.6 km/h 11.3 mph /  18.2 km/h 63 % 0.0 in /  0 mm
20:32 19.8 °F /  -6.8 °C 12.6 °F /  -10.8 °C 1010.4 in /  34212.1 hPa SSW 6.4 mph /  10.3 km/h 11.3 mph /  18.2 km/h 63 % 0.0 in /  0 mm
20:37 19.7 °F /  -6.8 °C 12.5 °F /  -10.8 °C 1010.4 in /  34212.1 hPa SSW 9.7 mph /  15.6 km/h 11.3 mph /  18.2 km/h 63 % 0.0 in /  0 mm
20:42 19.6 °F /  -6.9 °C 12.6 °F /  -10.8 °C 1010.4 in /  34212.1 hPa SW 8.0 mph /  12.9 km/h 11.3 mph /  18.2 km/h 64 % 0.0 in /  0 mm
20:52 19.1 °F /  -7.2 °C 12.4 °F /  -10.9 °C 1010.4 in /  34212.1 hPa SW 6.4 mph /  10.3 km/h 11.3 mph /  18.2 km/h 65 % 0.0 in /  0 mm
20:57 19.0 °F /  -7.2 °C 12.3 °F /  -10.9 °C 1010.4 in /  34212.1 hPa SW 8.0 mph /  12.9 km/h 8.0 mph /  12.9 km/h 65 % 0.0 in /  0 mm
21:02 18.9 °F /  -7.3 °C 12.2 °F /  -11 °C 1010.4 in /  34212.1 hPa SW 1.6 mph /  2.6 km/h 11.3 mph /  18.2 km/h 65 % 0.0 in /  0 mm
21:07 18.8 °F /  -7.3 °C 12.1 °F /  -11.1 °C 1010.4 in /  34212.1 hPa WSW 6.4 mph /  10.3 km/h 11.3 mph /  18.2 km/h 65 % 0.0 in /  0 mm
21:12 18.7 °F /  -7.4 °C 12.0 °F /  -11.1 °C 1010.0 in /  34198.6 hPa WSW 6.4 mph /  10.3 km/h 11.3 mph /  18.2 km/h 65 % 0.0 in /  0 mm
21:17 18.6 °F /  -7.4 °C 12.4 °F /  -10.9 °C 1010.0 in /  34198.6 hPa SW 3.2 mph /  5.1 km/h 9.7 mph /  15.6 km/h 67 % 0.0 in /  0 mm
21:22 18.2 °F /  -7.7 °C 12.6 °F /  -10.8 °C 1010.0 in /  34198.6 hPa SSW 4.8 mph /  7.7 km/h 9.7 mph /  15.6 km/h 70 % 0.0 in /  0 mm
21:32 17.5 °F /  -8.1 °C 12.4 °F /  -10.9 °C 1010.0 in /  34198.6 hPa SSW 6.4 mph /  10.3 km/h 6.4 mph /  10.3 km/h 72 % 0.0 in /  0 mm
21:37 17.5 °F /  -8.1 °C 12.4 °F /  -10.9 °C 1010.0 in /  34198.6 hPa SW 3.2 mph /  5.1 km/h 8.0 mph /  12.9 km/h 72 % 0.0 in /  0 mm
21:42 17.4 °F /  -8.1 °C 12.1 °F /  -11.1 °C 1010.0 in /  34198.6 hPa SSW 3.2 mph /  5.1 km/h 8.0 mph /  12.9 km/h 71 % 0.0 in /  0 mm
21:47 17.3 °F /  -8.2 °C 12.2 °F /  -11 °C 1010.0 in /  34198.6 hPa SSW 1.6 mph /  2.6 km/h 8.0 mph /  12.9 km/h 72 % 0.0 in /  0 mm
21:52 17.1 °F /  -8.3 °C 12.2 °F /  -11 °C 1010.0 in /  34198.6 hPa SW 3.2 mph /  5.1 km/h 8.0 mph /  12.9 km/h 73 % 0.0 in /  0 mm
21:57 17.1 °F /  -8.3 °C 12.0 °F /  -11.1 °C 1010.0 in /  34198.6 hPa WSW 4.8 mph /  7.7 km/h 8.0 mph /  12.9 km/h 72 % 0.0 in /  0 mm
22:02 17.1 °F /  -8.3 °C 11.8 °F /  -11.2 °C 1010.0 in /  34198.6 hPa SSW 1.6 mph /  2.6 km/h 9.7 mph /  15.6 km/h 71 % 0.0 in /  0 mm
22:12 16.7 °F /  -8.5 °C 11.8 °F /  -11.2 °C 1009.7 in /  34188.4 hPa SSW 1.6 mph /  2.6 km/h 9.7 mph /  15.6 km/h 73 % 0.0 in /  0 mm
22:17 16.4 °F /  -8.7 °C 12.0 °F /  -11.1 °C 1009.7 in /  34188.4 hPa SSW 3.2 mph /  5.1 km/h 6.4 mph /  10.3 km/h 75 % 0.0 in /  0 mm
22:22 16.1 °F /  -8.8 °C 11.9 °F /  -11.2 °C 1009.7 in /  34188.4 hPa SW 3.2 mph /  5.1 km/h 4.8 mph /  7.7 km/h 76 % 0.0 in /  0 mm
22:27 16.0 °F /  -8.9 °C 12.0 °F /  -11.1 °C 1009.7 in /  34188.4 hPa SSW 3.2 mph /  5.1 km/h 4.8 mph /  7.7 km/h 77 % 0.0 in /  0 mm
22:32 15.9 °F /  -8.9 °C 11.9 °F /  -11.2 °C 1009.7 in /  34188.4 hPa SSW 1.6 mph /  2.6 km/h 4.8 mph /  7.7 km/h 77 % 0.0 in /  0 mm
22:37 15.8 °F /  -9 °C 11.8 °F /  -11.2 °C 1010.0 in /  34198.6 hPa SW 1.6 mph /  2.6 km/h 4.8 mph /  7.7 km/h 77 % 0.0 in /  0 mm
22:42 15.8 °F /  -9 °C 11.8 °F /  -11.2 °C 1009.7 in /  34188.4 hPa SW 3.2 mph /  5.1 km/h 3.2 mph /  5.1 km/h 77 % 0.0 in /  0 mm
22:52 15.8 °F /  -9 °C 11.6 °F /  -11.3 °C 1010.0 in /  34198.6 hPa SSW 3.2 mph /  5.1 km/h 6.4 mph /  10.3 km/h 76 % 0.0 in /  0 mm
22:57 15.6 °F /  -9.1 °C 11.6 °F /  -11.3 °C 1009.7 in /  34188.4 hPa Calm   6.4 mph /  10.3 km/h 77 % 0.0 in /  0 mm
23:02 15.4 °F /  -9.2 °C 11.4 °F /  -11.4 °C 1009.7 in /  34188.4 hPa Calm   4.8 mph /  7.7 km/h 77 % 0.0 in /  0 mm
23:12 15.1 °F /  -9.4 °C 11.5 °F /  -11.4 °C 1009.4 in /  34178.3 hPa Calm   3.2 mph /  5.1 km/h 79 % 0.0 in /  0 mm
23:17 14.9 °F /  -9.5 °C 11.3 °F /  -11.5 °C 1009.4 in /  34178.3 hPa Calm   3.2 mph /  5.1 km/h 79 % 0.0 in /  0 mm
23:22 14.7 °F /  -9.6 °C 11.3 °F /  -11.5 °C 1009.4 in /  34178.3 hPa Calm   1.6 mph /  2.6 km/h 80 % 0.0 in /  0 mm
23:27 14.5 °F /  -9.7 °C 11.3 °F /  -11.5 °C 1009.4 in /  34178.3 hPa SSW 1.6 mph /  2.6 km/h 1.6 mph /  2.6 km/h 81 % 0.0 in /  0 mm
23:32 14.4 °F /  -9.8 °C 11.4 °F /  -11.4 °C 1009.0 in /  34164.7 hPa SSW 3.2 mph /  5.1 km/h 3.2 mph /  5.1 km/h 82 % 0.0 in /  0 mm
23:37 14.4 °F /  -9.8 °C 11.4 °F /  -11.4 °C 1009.0 in /  34164.7 hPa SSW 3.2 mph /  5.1 km/h 6.4 mph /  10.3 km/h 82 % 0.0 in /  0 mm
23:42 14.3 °F /  -9.8 °C 11.3 °F /  -11.5 °C 1009.0 in /  34164.7 hPa Calm   6.4 mph /  10.3 km/h 82 % 0.0 in /  0 mm
23:47 14.3 °F /  -9.8 °C 11.3 °F /  -11.5 °C 1008.7 in /  34154.6 hPa SW 3.2 mph /  5.1 km/h 6.4 mph /  10.3 km/h 82 % 0.0 in /  0 mm
23:52 14.3 °F /  -9.8 °C 11.3 °F /  -11.5 °C 1008.7 in /  34154.6 hPa SW 3.2 mph /  5.1 km/h 6.4 mph /  10.3 km/h 82 % 0.0 in /  0 mm
23:57 14.2 °F /  -9.9 °C 11.4 °F /  -11.4 °C 1008.7 in /  34154.6 hPa SSW 1.6 mph /  2.6 km/h 6.4 mph /  10.3 km/h 83 % 0.0 in /  0 mm
Meteo18
Compliments of Weather Underground - 4 mb

Script developed by  Jim McMurry - jmcmurry@mwt.net Adapted for the template by  Wim van der Kuil - Leuven-Template.eu

You find our weather info also at:

European Weather Network

Weather Underground

Equipment we use:

Weather-station
Davis Vue

Weather-program
Meteobridge

Weather-server
Raspberry PI 2 B+

Provider
1 and 1

Davis Vue

Meteobridge

Raspberry PI 2 B+

1 and 1